Flag for Canada Weather past 2 weeks in Churchill, Manitoba, Canada

Now
34 °F

Low clouds.


Feels Like: 23 °F
Forecast: 34 / 41 °F
Wind: 16 mph from South

Location: Churchill

Current Time: Oct 20, 2014 at 10:07:34 PM

Latest Report: Oct 20, 2014 at 9:00 PM


Visibility: 15 mi

Pressure: 30.02 "Hg

Humidity: 93%

Dew point: 32 °F

Location of ChurchillLocation

Historic Weather in Churchill — Graph

°F

Churchill temperature yesterday

Maximum temperature yesterday: 36 °F (at 2:00 PM)
Minimum temperature yesterday: 30 °F (at 12:00 AM)
Average temperature yesterday: 32 °F

Past Weeks' High & Low Weather Summary

 TemperatureHumidityPressure
High43 °F (Oct 7, 1:00 PM)100% (Oct 5, 9:00 PM)30.43 "Hg (Oct 5, 9:00 PM)
Low21 °F (Oct 18, 2:00 AM)69% (Oct 10, 12:00 AM)29.09 "Hg (Oct 5, 9:00 PM)
Average34 °F91%29.85 "Hg
* Reported Oct 5 9:00 PM — Oct 20 9:00 PM, Churchill, Weather by CustomWeather, © 2014

Note: Actual official high and low records may vary slightly from our data, if they occured in-between our weather recording intervals... More about our weather records

Advertising

Churchill weather history for previous 24 hours

 ConditionsComfort  
Time TempWeatherWind HumidityBarometerVisibility
9:00 PM
Oct 20
34 °FLow clouds.16 mph93%30.02 "Hg15 mi
8:00 PM34 °FLow clouds.13 mph93%30.05 "Hg15 mi
7:51 PM34 °FLow clouds.15 mph93%30.05 "Hg15 mi
7:00 PM36 °FOvercast.12 mph87%30.06 "Hg15 mi
6:00 PM36 °FMostly cloudy.7 mph93%30.07 "Hg15 mi
5:00 PM37 °FPartly sunny.6 mph87%30.08 "Hg15 mi
4:00 PM37 °FPartly sunny.5 mph87%30.09 "Hg15 mi
3:00 PM37 °FMostly cloudy.2 mph87%30.09 "Hg15 mi
2:00 PM36 °FLow clouds.No wind93%30.10 "Hg15 mi
1:00 PM36 °FLow clouds.2 mph93%30.11 "Hg15 mi
12:00 PM36 °FLow clouds.2 mph93%30.11 "Hg15 mi
11:00 AM36 °FLow clouds.6 mph93%30.10 "Hg15 mi
10:00 AM36 °FLow clouds.5 mph93%30.10 "Hg15 mi
9:00 AM36 °FLow clouds.5 mph93%30.08 "Hg15 mi
8:00 AM34 °FLow clouds.6 mph100%30.08 "Hg15 mi
7:00 AM34 °FLow clouds.9 mph93%30.06 "Hg15 mi
6:00 AM34 °FLow clouds.6 mph100%30.05 "Hg15 mi
5:00 AM34 °FLow clouds.3 mph100%30.04 "Hg15 mi
4:00 AM34 °FLow clouds.9 mph100%30.02 "Hg15 mi
3:00 AM34 °FLow clouds.7 mph100%30.00 "Hg10 mi
2:00 AM34 °FLow clouds.8 mph93%29.99 "Hg15 mi
1:00 AM34 °FLow clouds.7 mph100%29.96 "Hg15 mi
12:00 AM34 °FMostly cloudy.8 mph100%29.96 "Hg15 mi
10:00 PM
Oct 19
34 °FMostly cloudy.5 mph93%29.94 "Hg15 mi
Weather by CustomWeather, © 2014

See weather overviewHow to use our weather pages